Tracking 30922 objects as of 2-Jul-2025
HD Live streaming from Space Station
objects crossing your sky now

STARLINK-4169

Track STARLINK-4169 now!
10-day predictions
STARLINK-4169 is classified as:


NORAD ID: 53280
Int'l Code: 2022-086AQ
Perigee: 546.1 km
Apogee: 547.6 km
Inclination: 53.2 °
Period: 95.4 minutes
Semi major axis: 6917 km
RCS: Unknown
Launch date: July 24, 2022
Source: United States (US)
Launch site: AIR FORCE EASTERN TEST RANGE (AFETR)
Your satellite tracking list
Your tracking list is empty




NASA's NSSDC Master Catalog

Two Line Element Set (TLE):
1 53280U 22086AQ  25182.49365315  .00000253  00000-0  33976-4 0  9992
2 53280  53.2158 186.4597 0001061  78.7286 281.3825 15.08840434163916
Source of the keplerian elements: AFSPC